[Date Prev][Date Next][Thread Prev][Thread Next][Date Index][Thread Index]

[jamsat-news:1140] jas2info #154



========================   最新情報   ==============================

        Last updated :Fri.27-Aug.-1999 20:20 (JST) #154

====================================================================
   
     衛星情報 FOシリーズの軌道要素、テレメトリ、QSOの状況等を
   まとめてみました.

  1)  FO−29(JAS-2、ふじ3号)は、8月27日(金)14:15(JST)の
     パスはJARLのホムページの「ふじ3号」のスケジュールのとうりJDディジタル
     モードで運用されていました. (運用予定の変更あり)
       
 ■ 軌道要素1:「jamsat−keps:916」より 
              SB KEPS @ AMSAT  $ORB99239.N
       2Line Orbital Elements 99239.AMSAT

  HR AMSAT ORBITAL ELEMENTS FOR AMATEUR SATELLITES IN NASA FORMAT
  FROM WA5QGD FORT WORTH,TX August 27, 1999
  SEND SUBSCRIBE/UNSUBSCRIBE TO majordomo@amsat.org ONLY
  BID: ORB99239.N
  
  DECODE 2-LINE ELSETS WITH THE FOLLOWING KEY:
 1 AAAAAU 00  0  0 BBBBB.BBBBBBBB  .CCCCCCCC  00000-0  00000-0 0  DDDZ
 2 AAAAA EEE.EEEE FFF.FFFF GGGGGGG HHH.HHHH III.IIII JJ.JJJJJJJJKKKKKZ
 KEY: A-CATALOGNUM B-EPOCHTIME C-DECAY D-ELSETNUM E-INCLINATION F-RAAN
 G-ECCENTRICITY H-ARGPERIGEE I-MNANOM J-MNMOTION K-ORBITNUM Z-CHECKSUM

 TO ALL RADIO AMATEURS BT
 
  FO-29
  1 24278U 96046B   99237.88638993 -.00000023  00000-0  16400-4 0 02727
  2 24278 098.5667 179.7352 0350597 273.7710 082.3416 13.52677039149232
 
 ■ 軌道要素2:「jamsat−keps:918」より                         
         SB KEPS @ AMSAT  $ORB99239.O
         Orbital Elements  99239.OSCAR

  HR AMSAT ORBITAL ELEMENTS FOR OSCAR SATELLITES
  FROM WA5QGD FORT WORTH,TX August 27, 1999
  SEND SUBSCRIBE/UNSUBSCRIBE TO majordomo@amsat.org ONLY
  BID: ORB99239.O
  TO ALL RADIO AMATEURS BT

   Satellite: FO-29
  Catalog number: 24278
  Epoch time:      99237.88638993
  Element set:    0272
  Inclination:      098.5667 deg
  RA of node:       179.7352 deg
  Eccentricity:    0.0350597
  Arg of perigee:   273.7710 deg
  Mean anomaly:     082.3416 deg
  Mean motion:   13.52677039 rev/day
  Decay rate:       -2.3e-07 rev/day^2
  Epoch rev:           14923
  Checksum:              363
  
 -----------------------------------------------------------
  2)FO−29(JAS-2,ふじ3号)の 8月27日(金)の14:15(JST)のパスでは
  JDディジタルモードで運用され、それまでの取得したテレメトリデータの
  一部分です.

  AS14942P  27Aug99
  JST14:15-14:31   PSK 1200 b/s

 8J1JCS>BEACON [08/27/99  14:15:21]:
 JAS-2    '97/08/27 05:15:40
 9C 03 63 08 00 9D 00 00 00 00
 00 00 9D 07 7D 87 60 94 91 B0
 AA 52 A8 02 E2 BC BF C0 BD BD
         
 8J1JCS>BEACON [08/27/99  14:15:22]:95 02 00 09 00 00 78 40 00 00
 3B 6B E9 55 25 99 9D 7E 8C 85
 00 00 00 B3 7C B3 F7 00 00 00
                                      
 8J1JCS>BEACON [08/27/99  14:15:24]:
 User not connect.
                                                     
 8J1JCS>BEACON [08/27/99  14:15:26]:ter, Germany
                                                     
 8J1JCS>BEACON [08/27/99  14:17:34]:
 Total    1 File(s)

  No.  Date  UTC    To    From   Size   Subject
 0001 08/15 11:19 ALL    DK5EC      174 Hello from Koenigswin
 8J1JCS>BEACON [08/27/99  14:17:35]:ter, Germany
                                                     
 8J1JCS>BEACON [08/27/99  14:19:27]:
 JAS-2    '97/08/27 05:19:40
 9C 03 03 08 00 9D 00 00 00 00
 00 00 9D 07 F5 77 4E 95 92 9F
 AA 52 A8 02 B3 BC BF BF BC BD
         
 8J1JCS>BEACON [08/27/99  14:19:29]:95 02 00 09 00 00 78 40 00 00
 60 68 DC 50 16 81 83 7F 8D 86
 00 00 00 B1 7E B3 F7 00 00 00
                                      
 8J1JCS>BEACON [08/27/99  14:19:30]:
 User not connect.
                                                     
 8J1JCS>BEACON [08/27/99  14:19:31]:
 Total    1 File(s)

  No.  Date  UTC    To    From   Size   Subject
 0001 08/15 11:19 ALL    DK5EC      174 Hello from Koenigswin
 8J1JCS>BEACON [08/27/99  14:19:32]:ter, Germany
                                                     
 8J1JCS>BEACON [08/27/99  14:21:27]:
 JAS-2    '97/08/27 05:21:40
 9C 03 63 08 00 9D 00 00 00 00
 00 00 9D 08 31 83 60 95 92 B0
 AB 52 A8 02 A7 BD BF BF BC BD
         
 8J1JCS>BEACON [08/27/99  14:21:29]:95 02 00 09 00 00 78 40 00 00
 63 66 D4 46 08 58 5A 80 8D 85
 00 00 00 B1 7E B3 F7 00 00 00
                                      
 8J1JCS>BEACON [08/27/99  14:21:30]:
 User not connect.
                                                     
 8J1JCS>BEACON [08/27/99  14:21:31]:
 Total    1 File(s)

  No.  Date  UTC    To    From   Size   Subject
 0001 08/15 11:19 ALL    DK5EC      174 Hello from Koenigswin
 8J1JCS>BEACON [08/27/99  14:21:32]:ter, Germany
                                                     
 8J1JCS>BEACON [08/27/99  14:23:28]:
 JAS-2    '97/08/27 05:23:40
 9C 03 03 08 00 9D 00 00 00 00
 00 00 9D 08 6D 8C 43 97 93 A1
 AA 52 A8 02 CF BC BE BE BC BD
         
 8J1JCS>BEACON [08/27/99  14:23:29]:95 02 00 09 00 00 78 40 00 00
 10 65 CC 3B 03 34 36 80 8E 84
 00 00 00 B0 7E B3 F7 00 00 00
                                      
 8J1JCS>BEACON [08/27/99  14:23:30]:
 User not connect.
                                                     
 8J1JCS>BEACON [08/27/99  14:23:31]:
 Total    1 File(s)

  No.  Date  UTC    To    From   Size   Subject
 0001 08/15 11:19 ALL    DK5EC      174 Hello from Koenigswin
 8J1JCS>BEACON [08/27/99  14:23:32]:ter, Germany
                                                     
 8J1JCS>BEACON [08/27/99  14:25:28]:
 JAS-2    '97/08/27 05:25:40
 9C 03 63 08 00 9D 00 00 00 00
 00 00 9D 08 A9 8C 60 94 91 B0
 AA 52 A8 02 E3 BC BE BE BB BD
         
 8J1JCS>BEACON [08/27/99  14:25:29]:95 02 00 09 00 00 78 40 00 00
 10 65 C6 29 03 1E 1F 80 8E 83
 00 00 00 B0 7F B3 F7 00 00 00
                                      
 8J1JCS>BEACON [08/27/99  14:25:30]:
 User not connect.
                                                     
 8J1JCS>BEACON [08/27/99  14:25:31]:
 Total    1 File(s)

  No.  Date  UTC    To    From   Size   Subject
 0001 08/15 11:19 ALL    DK5EC      174 Hello from Koenigswin
 8J1JCS>BEACON [08/27/99  14:25:32]:ter, Germany
                                                     
 8J1JCS>BEACON [08/27/99  14:27:28]:
 JAS-2    '97/08/27 05:27:40
 9C 03 03 08 00 9D 00 00 00 00
 00 00 9D 08 E5 79 4D 95 92 A0
 AA 53 A8 02 B6 BC BE BE BB BC
         
 8J1JCS>BEACON [08/27/99  14:27:29]:95 02 00 09 00 00 78 40 00 00
 10 65 C6 25 03 1D 1E 80 8D 82
 00 00 00 AF 7F B3 F7 00 00 00
                                      
 8J1JCS>BEACON [08/27/99  14:27:30]:
 User not connect.
                                                     
 8J1JCS>BEACON [08/27/99  14:27:31]:
 Total    1 File(s)

  No.  Date  UTC    To    From   Size   Subject
 0001 08/15 11:19 ALL    DK5EC      174 Hello from Koenigswin
 8J1JCS>BEACON [08/27/99  14:27:32]:ter, Germany
                                                     
 8J1JCS>BEACON [08/27/99  14:29:28]:
 JAS-2    '97/08/27 05:29:40
 9C 03 63 08 00 9D 00 00 00 00
 00 00 9D 09 21 7E 60 95 92 B0
 AA 52 A8 02 E3 BD BE BD BB BC
         
 8J1JCS>BEACON [08/27/99  14:29:29]:95 02 00 09 00 00 78 40 00 00
 10 65 C1 33 03 1D 1D 80 8D 82
 00 00 00 AF 7F B3 F7 00 00 00
                                      
 8J1JCS>BEACON [08/27/99  14:29:30]:
 User not connect.
                                                     
 8J1JCS>BEACON [08/27/99  14:29:31]:
 Total    1 File(s)

  No.  Date  UTC    To    From   Size   Subject
 0001 08/15 11:19 ALL    DK5EC      174 Hello from Koenigswin
 8J1JCS>BEACON [08/27/99  14:29:32]:ter, Germany
                                                     
 8J1JCS>BEACON [08/27/99  14:31:28]:
 JAS-2    '97/08/27 05:31:40
 9C 03 63 08 00 9D 00 00 00 00
 00 00 9D 09 5D 85 60 93 90 B0
 AA 52 A8 01 C4 BD BD BD BA BB
         
 8J1JCS>BEACON [08/27/99  14:31:29]:95 02 00 09 00 00 78 40 00 00
 10 65 BC 40 03 1A 1B 80 8D 82
 00 00 00 AE 7F B3 F7 00 00 00
                                      
 8J1JCS>BEACON [08/27/99  14:31:30]:
 User not connect.
                                                     
 8J1JCS>BEACON [08/27/99  14:31:31]:
 Total    1 File(s)

  No.  Date  UTC    To    From   Size   Subject
 0001 08/15 11:19 ALL    DK5EC      174 Hello from Koenigswin
 8J1JCS>BEACON [08/27/99  14:31:32]:ter, Germany

  AS14902C1  24Aug99
  JST 15:17 - 15:29

                               00 31 91 58 79 60 93 90 B0 8C BF BE BF BF BD 
 HI HI AE C7 00 55  B 95 FF 0D 00 31 88 5A 79 60 94 91 B0 7A BF BE BF BE BD 
 HI HI AE C7 88 55 11 95 FF 1E 00 31 79 5E 88 60 95 93 B0 77 BF BE BF BF BD
 HI HI AE C7 88 55 16 95 FF 25 00 31 67 63 92 61 94 91 B0 7D BF BD BF BF BD 
 HI HI AE 07 88 55 1B 95 FF 0H 00 31 5C 61 96 60 93 90 B0 A3 BF BD BF BE BD 
 HI HI AE C7 88 55 00 95 FF 1E 00 31 51 5B 96 60 96 93 B0 94 BF BD BF BE BD 
 HI HI AE C7 88 55 05 95 FF 0D 00 35 48 57 91 60 94 91 B0 68 BF BD BF BE BD 
 HI HI AE C7 88 55 0A 95 FF 0D 00 31 4A 4D 8C 60 94 91 B0 88 BF BD BF BE BD 
 HI HI AE C7 88 55 0F 95 EE 0D 00 31  
 HI HI AE C7 88 55 14 95 FF 0D 00 31 3F 42 92 60 94 91 B0 7A BE BD BE BE BD 
 HI HI AE C7 88 55    95 FF 0D 00 31 44 42 92 60 94 91 B0 8F BE BD BE BE BD   
 HI HI AE C7 88 55 10 95 FF 0D 00 31 4E 35 8A 60 93 90 B0 7F BE BC BE BD BD
 HI HI AE C7 88 55 08 95 FF 0D 00 31 4E 30 86 60 93 91 B0 98 BE BC BE BD BD 
 HI HI AE C7 88 55 0D 95 FF 0D O0 31 56 32 83 60 94 91 B0 8D BE BC BE BD BD 
 HI HI AE C7 88 55 12 95 FF 25 00 31    37 7C 60 93 91 B0 90 BE BC BE BD BD
  

  AS14900C1  24Aug99
  JST 11:54 - 11:59

 HI HI AE C7 88 55 0F 95 FF 0D 00 31 52 3A 89 5F 93 91 B0 70 BF BC BE BE BD 
 HI HI AE C7 88 55 14 95 FF 0D 00 31 4E 39 88 60 93 91 B0 70 BF BC BE BE BD 
 HI HI AE C7 88 55 19 95 FF 1A 00 31 4A 3B 85 44 95 92 B0 73 BF BC BE BE BD 
 HI HI AE C7 88 55 1E 95 FF 0D 00 31 58 2A 6D 61 94 92 B0 86 BE BC BD BE BD 
 HI HI AE C7 88 55 08 95 FF 0D 00 31 65 24 76 60 93 90 B0 72 BE BC BD BE BD 
 HI HI AE C7 88 55 0D 95 FF 0D 00 31 72 22 7D 60 95 92 B0 73 BE BB BD BD BD 
 HI HI AE C7 88 55 12 95 FF 0D 00 31 7E 24 82 60 93 91 B0 75 BE BB BD BE BD  
     
 3)テレメトリ換算値例  
  
  上記 JAS-2のJDディジタルモードテレメトリ、最初のブロックの換算値例

  AS14942P  27Aug99
  JST14:15-14:31   PSK 1200 b/s

